Weather History for KRMN - April, 2013

Change the Weather History Date:

Friday, April 19, 2013

  Actual Average (KDCA) Record (KDCA)
Temperature  
Mean Temperature 68 °F 58 °F  
Max Temperature 80 °F 68 °F 93 °F (1976)
Min Temperature 55 °F 48 °F 22 °F (1875)
Degree Days  
Heating Degree Days 0 8  
Month to date heating degree days 199  
Since 1 July heating degree days 3875  
Cooling Degree Days 3 1  
Month to date cooling degree days 10  
Year to date cooling degree days 12  
Growing Degree Days 18 (Base 50)    
Moisture  
Dew Point 63 °F    
Average Humidity 78    
Maximum Humidity 97    
Minimum Humidity 56    
Precipitation  
Precipitation 0.51 in 0.09 in 1.75 in (1877)
Month to date precipitation 1.94  
Year to date precipitation 10.85  
Snow  
Snow 0.00 in 0.00 in T in (1983)
Month to date snowfall 0.0  
Since 1 July snowfall 15.4  
Snow Depth -    
Sea Level Pressure  
Sea Level Pressure 29.84 in    
Wind  
Wind Speed 9 mph (South)    
Max Wind Speed 17 mph    
Max Gust Speed 36 mph    
Visibility 10 miles    
Events Rain , Thunderstorm    
T = Trace of Precipitation, MM = Missing Value Source: NWS Daily Summary

Daily Weather History Graph

Daily Weather History Graph

Search for Another Location

Airport or City:

Trip Planner

Search our weather history database for the weather conditions in past years. The results will help you decide how hot, cold, wet, or windy it might be!

Date:

Astronomy

Apr. 19, 2013 Rise Set
Actual Time 6:28 AM EDT 7:50 PM EDT
Civil Twilight 6:00 AM EDT 8:18 PM EDT
Nautical Twilight 5:27 AM EDT 8:51 PM EDT
Astronomical Twilight 4:52 AM EDT 9:26 PM EDT
Moon 1:37 PM EDT (4/19) 2:37 AM EDT (4/19)
Length of Visible Light 14h 17m
Length of Day
13h 22m
First Quarter, 61% of the Moon is Illuminated
Apr 19
First Quarter
Apr 25
Full
May 2
Last Quarter
May 9
New
May 18
First Quarter

Hourly Weather History & Observations

Time (EDT) Temp. Heat Index Dew Point Humidity Pressure Visibility Wind Dir Wind Speed Gust Speed Precip Events Conditions
12:15 AM 67.3 °F - 59.7 °F 77% 30.04 in 10.0 mi SSE 8.1 mph - N/A   Clear
12:35 AM 67.5 °F - 59.7 °F 76% 30.04 in 10.0 mi South 8.1 mph - N/A   Clear
12:55 AM 67.1 °F - 59.7 °F 77% 30.03 in 10.0 mi SSE 6.9 mph - N/A   Clear
1:15 AM 66.9 °F - 59.9 °F 78% 30.03 in 10.0 mi SSE 9.2 mph - N/A   Clear
1:35 AM 66.9 °F - 59.9 °F 78% 30.02 in 10.0 mi South 8.1 mph - N/A   Clear
1:55 AM 66.7 °F - 59.9 °F 79% 30.01 in 10.0 mi South 8.1 mph - N/A   Clear
2:15 AM 66.4 °F - 59.9 °F 80% 30.00 in 10.0 mi South 6.9 mph - N/A   Clear
2:35 AM 66.4 °F - 59.9 °F 80% 29.99 in 10.0 mi South 6.9 mph - N/A   Clear
2:55 AM 66.4 °F - 60.1 °F 80% 29.98 in 10.0 mi South 8.1 mph - N/A   Clear
3:15 AM 65.3 °F - 59.4 °F 81% 29.98 in 10.0 mi South 5.8 mph - N/A   Clear
3:35 AM 64.8 °F - 59.4 °F 83% 29.97 in 10.0 mi SSE 5.8 mph - N/A   Scattered Clouds
3:55 AM 64.8 °F - 59.7 °F 84% 29.96 in 10.0 mi South 5.8 mph - N/A   Mostly Cloudy
4:15 AM 65.5 °F - 60.1 °F 83% 29.96 in 10.0 mi South 8.1 mph - N/A   Overcast
4:35 AM 65.5 °F - 60.4 °F 84% 29.96 in 10.0 mi South 8.1 mph - N/A   Overcast
4:55 AM 66.4 °F - 61.2 °F 83% 29.95 in 10.0 mi South 8.1 mph - N/A   Overcast
5:15 AM 66.4 °F - 61.3 °F 84% 29.95 in 10.0 mi South 5.8 mph - N/A   Overcast
5:35 AM 66.4 °F - 61.9 °F 85% 29.94 in 10.0 mi SE 5.8 mph - N/A   Overcast
5:55 AM 66.0 °F - 61.9 °F 86% 29.94 in 10.0 mi SSE 5.8 mph - N/A   Overcast
6:15 AM 65.5 °F - 62.1 °F 89% 29.94 in 10.0 mi SSE 9.2 mph - N/A   Overcast
6:55 AM 64.9 °F - 63.0 °F 93% 29.95 in 10.0 mi SSE 6.9 mph - N/A   Overcast
7:15 AM 65.3 °F - 62.8 °F 92% 29.94 in 10.0 mi SSE 8.1 mph - N/A   Mostly Cloudy
7:35 AM 65.5 °F - 63.0 °F 92% 29.94 in 10.0 mi SSE 5.8 mph - N/A   Scattered Clouds
7:55 AM 66.4 °F - 63.7 °F 91% 29.94 in 10.0 mi SSE 5.8 mph - N/A   Mostly Cloudy
8:15 AM 66.4 °F - 63.5 °F 90% 29.93 in 10.0 mi SSE 8.1 mph - N/A   Overcast
8:35 AM 67.3 °F - 63.5 °F 88% 29.92 in 10.0 mi SSE 8.1 mph - N/A   Overcast
8:55 AM 68.4 °F - 63.7 °F 85% 29.92 in 10.0 mi South 9.2 mph 16.1 mph N/A   Overcast
9:15 AM 69.1 °F - 64.0 °F 84% 29.92 in 10.0 mi South 8.1 mph 16.1 mph N/A   Overcast
9:35 AM 69.8 °F - 64.4 °F 83% 29.91 in 10.0 mi South 9.2 mph - N/A   Overcast
9:55 AM 70.3 °F - 64.4 °F 81% 29.90 in 10.0 mi South 13.8 mph 18.4 mph N/A   Overcast
10:15 AM 71.1 °F - 64.6 °F 80% 29.89 in 10.0 mi SSE 8.1 mph 18.4 mph N/A   Overcast
10:55 AM 72.5 °F - 63.7 °F 74% 29.89 in 10.0 mi SSW 13.8 mph 20.7 mph N/A   Overcast
11:15 AM 74.7 °F - 64.4 °F 70% 29.87 in 10.0 mi South 10.4 mph 20.7 mph N/A   Mostly Cloudy
11:35 AM 76.3 °F - 64.2 °F 66% 29.86 in 10.0 mi South 11.5 mph 27.6 mph N/A   Mostly Cloudy
11:55 AM 75.2 °F - 63.9 °F 68% 29.86 in 10.0 mi South 10.4 mph 24.2 mph N/A   Mostly Cloudy
12:15 PM 77.0 °F - 64.4 °F 65% 29.85 in 10.0 mi SSW 12.7 mph 23.0 mph N/A   Overcast
12:35 PM 75.4 °F - 63.3 °F 66% 29.84 in 10.0 mi South 9.2 mph 20.7 mph N/A   Overcast
12:55 PM 76.3 °F - 63.9 °F 65% 29.83 in 10.0 mi South 9.2 mph - N/A   Overcast
1:15 PM 77.0 °F - 63.9 °F 64% 29.82 in 10.0 mi South 8.1 mph 18.4 mph N/A   Overcast
1:35 PM 77.2 °F - 63.9 °F 63% 29.80 in 10.0 mi South 10.4 mph 19.6 mph N/A   Overcast
1:55 PM 80.6 °F 82.2 °F 64.2 °F 57% 29.78 in 10.0 mi South 15.0 mph 24.2 mph N/A   Mostly Cloudy
2:15 PM 78.8 °F - 63.7 °F 60% 29.76 in 10.0 mi South 15.0 mph 21.9 mph N/A   Mostly Cloudy
2:35 PM 78.8 °F - 63.7 °F 60% 29.75 in 10.0 mi South 11.5 mph 19.6 mph N/A   Overcast
2:55 PM 79.9 °F - 63.3 °F 57% 29.74 in 10.0 mi SSW 12.7 mph 23.0 mph N/A   Overcast
3:15 PM 79.9 °F - 63.3 °F 57% 29.72 in 10.0 mi South 15.0 mph 24.2 mph N/A   Overcast
3:35 PM 80.4 °F 82.0 °F 63.7 °F 57% 29.71 in 10.0 mi South 13.8 mph 20.7 mph N/A   Overcast
3:55 PM 79.3 °F - 64.2 °F 60% 29.70 in 10.0 mi South 9.2 mph 19.6 mph N/A   Scattered Clouds
4:15 PM 80.6 °F 82.3 °F 64.8 °F 58% 29.69 in 10.0 mi South 17.3 mph 25.3 mph N/A   Scattered Clouds
4:35 PM 80.4 °F 82.2 °F 64.8 °F 59% 29.69 in 10.0 mi South 15.0 mph 21.9 mph N/A   Overcast
4:55 PM 80.6 °F 82.3 °F 64.6 °F 58% 29.68 in 10.0 mi South 11.5 mph 20.7 mph N/A   Mostly Cloudy
5:15 PM 80.6 °F 82.3 °F 64.4 °F 58% 29.68 in 10.0 mi South 13.8 mph 23.0 mph N/A   Scattered Clouds
5:35 PM 80.6 °F 82.0 °F 63.7 °F 56% 29.68 in 10.0 mi South 11.5 mph 21.9 mph N/A   Scattered Clouds
5:55 PM 80.6 °F 82.2 °F 63.9 °F 57% 29.67 in 10.0 mi South 12.7 mph 19.6 mph N/A   Scattered Clouds
6:15 PM 80.6 °F 82.0 °F 63.7 °F 56% 29.66 in 10.0 mi South 9.2 mph 17.3 mph N/A   Mostly Cloudy
6:35 PM 80.6 °F 82.2 °F 63.9 °F 57% 29.64 in 10.0 mi South 11.5 mph 21.9 mph N/A Thunderstorm Overcast
6:55 PM 68.2 °F - 64.9 °F 89% 29.72 in 3.0 mi SW 16.1 mph 35.7 mph 0.12 in Rain , Thunderstorm Thunderstorms and Rain
7:15 PM 67.1 °F - 64.4 °F 91% 29.72 in 7.0 mi SSW 15.0 mph 24.2 mph 0.03 in Rain , Thunderstorm Thunderstorms and Rain
7:35 PM 66.4 °F - 63.9 °F 92% 29.71 in 7.0 mi SSW 11.5 mph 20.7 mph 0.08 in Rain Rain
7:55 PM 66.6 °F - 63.5 °F 90% 29.70 in 10.0 mi South 10.4 mph 19.6 mph 0.09 in Rain Light Rain
8:15 PM 66.4 °F - 63.5 °F 90% 29.71 in 10.0 mi South 8.1 mph 18.4 mph N/A Rain Light Rain
8:35 PM 66.4 °F - 64.4 °F 93% 29.72 in 10.0 mi South 9.2 mph - 0.01 in Rain Light Rain
8:55 PM 66.4 °F - 64.6 °F 94% 29.74 in 10.0 mi South 9.2 mph - 0.01 in Rain Light Rain
9:15 PM 66.4 °F - 64.9 °F 95% 29.74 in 10.0 mi South 9.2 mph - 0.02 in Rain Light Rain
9:35 PM 66.4 °F - 65.3 °F 96% 29.75 in 7.0 mi South 9.2 mph - 0.03 in Rain Rain
9:55 PM 67.1 °F - 65.7 °F 95% 29.74 in 10.0 mi South 5.8 mph - 0.05 in Rain Light Rain
10:15 PM 67.1 °F - 65.5 °F 95% 29.75 in 10.0 mi SSW 5.8 mph - 0.01 in Rain Rain
10:35 PM 67.1 °F - 65.3 °F 94% 29.75 in 7.0 mi West 5.8 mph - 0.03 in Rain Rain
10:55 PM 59.4 °F - 58.3 °F 96% 29.79 in 5.0 mi NNW 10.4 mph - 0.12 in Rain Heavy Rain
11:15 PM 57.6 °F - 55.9 °F 94% 29.79 in 10.0 mi NW 6.9 mph 19.6 mph 0.01 in Rain Light Rain
11:35 PM 56.3 °F - 54.5 °F 94% 29.79 in 10.0 mi North 15.0 mph 19.6 mph 0.04 in Rain Light Rain
11:55 PM 55.4 °F - 54.5 °F 97% 29.79 in 5.0 mi North 12.7 mph 17.3 mph 0.12 in Rain Rain